Torna al catalogo

FENGYUN 1C DEB

AttivoSSO
NORAD 31660·DEBRIS·🇨🇳 China

Lanciato May 10, 1999 da Taiyuan Satellite Launch Center

Loading…

Prossimi Passaggi (prossime 24 ore)

TLE

AggiornatoSource: Space-Track

Epoca: Sep 14, 2026, 04:49 UTC

1 31660U 99025CBS 26257.20110835  .00000801  00000-0  32216-3 0  9999
2 31660  98.5145 256.4002 0102434  92.8269 268.4641 14.27874449118460

Traccia FENGYUN 1C DEB in tempo reale con AllMySat

Download on the App Store